[[{"header":{"parameterUnit":"m.s-1","parameterCategory":1,"la1":30.2991,"la2":30.254,"lo1":-89.0895,"lo2":-89.0444,"dy":0.0017,"dx":0.0017,"nx":28,"ny":28,"refTime":"2023-09-21T21:00:00:Z","depth":0,"parameterNumber":2,"parameterNumberName":"U-component_of_WINDS"},"data":[0,0,0,0,0,0,0,0,0,0,0,0,0,0,0,0,0,0,0,0,0,0,0,0,0,0,0,0,0,0,0,0,0,0,0,0,0,0,0,0,0,0,0,0,0,0,0,0,0,0,0,0,0,0,0,0,0,0,0.0357,0.0358,0,0.0415,0.0415,0.0416,0.0426,0.0426,0.0425,0.0425,0.049,0.0492,0.0494,0,0,0,0,0,0,0,0,0,0,0,0,0,0.0259,0.0261,0.0357,0.0358,0.0358,0.0415,0.0415,0.0416,0.0426,0.0426,0.0425,0.0425,0.0489,0.0492,0.0495,0,0,0,0,0,0,0,0,0,0,0,0,0,0.0308,0.0261,0.0357,0.037,0.0372,0.0414,0.0415,0.0416,0.0427,0.0426,0.0425,0.0424,0.0489,0.0492,0.0495,0.053,0,0,0.0505,0.0506,0,0,0,0,0,0,0,0,0.0305,0.0311,0.0368,0.0369,0.0371,0.0412,0.0405,0.0455,0.0427,0.0406,0.0425,0.0424,0.0465,0.047,0.0483,0.0533,0.0536,0.0505,0.0507,0.0509,0.051,0,0,0,0,0,0,0,0.0302,0.0309,0.038,0.0368,0.0371,0.0374,0.038,0.0414,0.0439,0.0408,0.0409,0.0415,0.0466,0.048,0.0485,0.0537,0.0505,0.0508,0.051,0.0512,0.0615,0.0616,0,0,0,0,0,0,0.0295,0.0306,0.0378,0.0382,0.0335,0.0377,0.0383,0.04,0.0439,0.0444,0.0416,0.0415,0.0475,0.0481,0.0487,0.0529,0.0509,0.0512,0.0514,0.0614,0.0615,0.0616,0,0,0,0,0,0,0.0293,0.0302,0.0376,0.0344,0.0354,0.0379,0.0398,0.0402,0.0415,0.0445,0.045,0.0425,0.0474,0.0482,0.0518,0.0531,0.0513,0.0516,0.0613,0.0615,0.0616,0.0613,0,0,0,0,0,0,0.029,0.0301,0.0314,0.0344,0.0355,0.0405,0.0399,0.0403,0.042,0.042,0.0455,0.046,0.0474,0.0513,0.0521,0.0535,0.0519,0.0612,0.0614,0.0615,0.0612,0.0614,0.0616,0,0,0,0,0,0.0287,0.0313,0.0315,0.0323,0.0372,0.0406,0.0413,0.0427,0.0421,0.0435,0.0453,0.0459,0.0528,0.0517,0.0526,0.0541,0.0612,0.0614,0.0615,0.0612,0.0614,0.0616,0,0,0,0,0,0,0.0287,0.0318,0.032,0.0356,0.0378,0.0408,0.0426,0.043,0.0455,0.0455,0.0473,0.0481,0.0515,0.0532,0.0519,0.0575,0.057,0.0573,0.0564,0.0566,0.0568,0.0563,0.0522,0,0,0,0,0,0.0291,0.0314,0.034,0.037,0.038,0.0401,0.0416,0.0425,0.0449,0.0459,0.048,0.0505,0.0532,0.055,0.0577,0.0614,0.0621,0.0629,0.0631,0.0632,0.0635,0.0654,0.0657,0.0622,0.0622,0.0622,0,0,0.0301,0.032,0.0334,0.0371,0.0389,0.0413,0.0409,0.0436,0.0454,0.0464,0.0498,0.0514,0.0543,0.0578,0.0595,0.0593,0.0646,0.0634,0.0635,0.0638,0.0656,0.0659,0.0662,0.0623,0.0623,0.0623,0,0,0.033,0.0347,0.0372,0.0389,0.0414,0.0427,0.0433,0.0461,0.0471,0.0504,0.0511,0.0534,0.0581,0.06,0.0616,0.0646,0.0652,0.0655,0.0665,0.0682,0.0685,0.0687,0.0697,0.0701,0.0658,0.0658,0.0658,0,0.0339,0.0374,0.0385,0.041,0.0426,0.0432,0.0457,0.0474,0.0508,0.0519,0.0515,0.0571,0.0591,0.063,0.0637,0.065,0.0657,0.0652,0.0683,0.0686,0.0689,0.0698,0.0702,0.0658,0.0658,0.0658,0.0658,0,0.0383,0.0407,0.0425,0.0453,0.0471,0.0496,0.0512,0.0528,0.0534,0.0547,0.0579,0.0603,0.0633,0.0642,0.0651,0.0682,0.0679,0.0679,0.0674,0.0692,0.0701,0.0705,0.0658,0.0658,0.0658,0.0658,0,0,0.0418,0.0448,0.0455,0.0466,0.0493,0.0513,0.0537,0.0564,0.0577,0.0599,0.062,0.0657,0.0655,0.0673,0.0683,0.0698,0.0719,0.0696,0.0697,0.0699,0.0753,0.0753,0.0757,0.0722,0.0723,0.0723,0.075,0,0.0449,0.0492,0.05,0.0538,0.0559,0.0563,0.0585,0.0603,0.0615,0.0636,0.0649,0.0674,0.0672,0.0682,0.0697,0.0713,0.073,0.0711,0.0742,0.0743,0.0735,0.0762,0.0763,0.0787,0.0754,0.0755,0.0755,0,0.0493,0.0512,0.055,0.057,0.058,0.0599,0.0622,0.0641,0.0662,0.0669,0.0686,0.0693,0.0719,0.071,0.0746,0.0733,0.0745,0.0755,0.0756,0.076,0.0751,0.0766,0.0796,0.0799,0.0761,0.0761,0.076,0,0.0513,0.0548,0.0575,0.0585,0.061,0.0622,0.0634,0.0653,0.0667,0.0688,0.0697,0.0721,0.0734,0.0753,0.0766,0.0759,0.0799,0.0793,0.0806,0.0806,0.0816,0.0815,0.0847,0.0824,0.0823,0.0823,0.0823,0,0.0547,0.057,0.0583,0.06,0.0625,0.0635,0.066,0.0671,0.0688,0.0706,0.0712,0.073,0.0746,0.0765,0.0776,0.0802,0.0809,0.0815,0.0818,0.0815,0.0814,0.0824,0.0823,0.0824,0.0824,0.0824,0.0824,0,0.0575,0.0584,0.0613,0.0632,0.0637,0.0655,0.0672,0.0688,0.0698,0.0721,0.0728,0.0744,0.0767,0.0781,0.0812,0.0818,0.0847,0.0849,0.0839,0.0841,0.0853,0.0851,0.0893,0.0898,0.0871,0.0871,0.0872,0,0.0596,0.0613,0.0632,0.0644,0.0654,0.0674,0.0687,0.0696,0.0709,0.0731,0.0745,0.0767,0.0786,0.0823,0.0838,0.0861,0.0863,0.0876,0.0867,0.0862,0.0863,0.0861,0.0862,0.0878,0.0878,0.0879,0.0879,0,0.0633,0.0636,0.0653,0.0671,0.0686,0.0702,0.0717,0.0727,0.0738,0.0753,0.0775,0.0789,0.0818,0.084,0.0863,0.0875,0.0879,0.0881,0.0885,0.0883,0.0876,0.0878,0.0843,0.0881,0.088,0.088,0.088,0.088,0.0658,0.0672,0.0686,0.0705,0.0716,0.073,0.0745,0.0754,0.0772,0.0795,0.0799,0.0822,0.0839,0.0869,0.0882,0.09,0.0898,0.0905,0.0906,0.0908,0.0907,0.0872,0.0905,0.0904,0.0904,0.0904,0.0904,0,0.0694,0.0702,0.0719,0.0738,0.0752,0.0751,0.0767,0.078,0.0799,0.0814,0.083,0.0854,0.0875,0.089,0.0911,0.0922,0.0924,0.0927,0.0927,0.0929,0.0909,0.0902,0.0925,0.0925,0.0925,0.0925,0.0925,0.0925,0.0715,0.0737,0.0741,0.0769,0.0778,0.0798,0.0807,0.0819,0.0831,0.0856,0.0872,0.088,0.0895,0.0916,0.0934,0.0938,0.0946,0.0948,0.0953,0.0933,0.0931,0.0929,0.0923,0.095,0.095,0.0972,0.0972,0.0972]},{"header":{"parameterUnit":"m.s-1","parameterCategory":1,"la1":30.2991,"la2":30.254,"lo1":-89.0895,"lo2":-89.0444,"dy":0.0017,"dx":0.0017,"nx":28,"ny":28,"refTime":"2023-09-21T21:00:00:Z","depth":0,"parameterNumber":3,"parameterNumberName":"V-component_of_WINDS"},"data":[0,0,0,0,0,0,0,0,0,0,0,0,0,0,0,0,0,0,0,0,0,0,0,0,0,0,0,0,0,0,0,0,0,0,0,0,0,0,0,0,0,0,0,0,0,0,0,0,0,0,0,0,0,0,0,0,0,0,2.8607,2.8607,0,2.8572,2.8571,2.8571,2.851,2.8509,2.8508,2.8507,2.8468,2.8468,2.8468,0,0,0,0,0,0,0,0,0,0,0,0,0,2.8619,2.8619,2.8607,2.8607,2.8607,2.8572,2.8571,2.8571,2.851,2.8509,2.8508,2.8506,2.8468,2.8468,2.8468,0,0,0,0,0,0,0,0,0,0,0,0,0,2.8602,2.8619,2.8607,2.8572,2.8569,2.8572,2.8571,2.8571,2.8511,2.8509,2.8507,2.8506,2.8468,2.8468,2.8468,2.8502,0,0,2.8469,2.8469,0,0,0,0,0,0,0,0,2.8603,2.8601,2.8578,2.8575,2.8571,2.8544,2.8561,2.8548,2.8511,2.8533,2.8507,2.8505,2.8495,2.8492,2.8489,2.8501,2.8499,2.8469,2.8469,2.8469,2.8469,0,0,0,0,0,0,0,2.8604,2.8603,2.8593,2.8578,2.8573,2.8557,2.8552,2.8558,2.8523,2.8531,2.8526,2.8523,2.8492,2.8489,2.8488,2.8498,2.8469,2.8469,2.8469,2.8469,2.853,2.8531,0,0,0,0,0,0,2.8611,2.8604,2.8594,2.8592,2.8583,2.8558,2.8553,2.8554,2.8523,2.8517,2.8524,2.852,2.849,2.8488,2.8486,2.852,2.8469,2.8469,2.8469,2.8528,2.853,2.8532,0,0,0,0,0,0,2.8611,2.8611,2.8596,2.8597,2.8594,2.856,2.8561,2.8554,2.8551,2.8519,2.8512,2.8528,2.8489,2.8486,2.8498,2.8518,2.8469,2.8469,2.8526,2.8529,2.8531,2.859,0,0,0,0,0,0,2.8612,2.8611,2.8625,2.8598,2.8594,2.8609,2.8562,2.8555,2.8552,2.8546,2.852,2.8514,2.8487,2.8498,2.8498,2.8517,2.8469,2.8524,2.8527,2.853,2.8586,2.8594,2.8601,0,0,0,0,0,2.8613,2.8644,2.8626,2.8625,2.8611,2.8611,2.8608,2.8577,2.8554,2.8566,2.8544,2.8515,2.8516,2.85,2.8499,2.8518,2.8523,2.8526,2.853,2.8582,2.8592,2.86,0,0,0,0,0,0,2.8675,2.864,2.862,2.8643,2.863,2.86,2.8615,2.8589,2.8583,2.8577,2.8538,2.8533,2.8548,2.8535,2.8517,2.8547,2.8515,2.8518,2.8555,2.8564,2.8571,2.8573,2.8469,0,0,0,0,0,2.8691,2.8695,2.8664,2.8688,2.8682,2.865,2.8649,2.8626,2.8611,2.8605,2.8584,2.857,2.8566,2.8565,2.856,2.8584,2.8575,2.8597,2.8604,2.8611,2.8613,2.862,2.8628,2.8544,2.8544,2.8543,0,0,2.8725,2.8706,2.8711,2.8699,2.8687,2.8689,2.8646,2.8652,2.8652,2.8605,2.8613,2.8598,2.8579,2.8595,2.8602,2.8585,2.8635,2.8615,2.8621,2.862,2.8625,2.8633,2.864,2.8546,2.8546,2.8545,0,0,2.8787,2.8775,2.8791,2.8779,2.876,2.8738,2.8742,2.8715,2.8702,2.871,2.8674,2.8674,2.867,2.8657,2.8649,2.8703,2.8674,2.8703,2.8741,2.8748,2.8754,2.876,2.8775,2.8781,2.8706,2.8706,2.8706,0,2.8831,2.8835,2.8803,2.8809,2.8803,2.8761,2.8775,2.8764,2.8745,2.8741,2.8722,2.8714,2.8699,2.8709,2.8721,2.8719,2.8719,2.8704,2.8756,2.8762,2.8766,2.878,2.8786,2.871,2.8709,2.8709,2.8709,0,2.8887,2.8891,2.8906,2.8886,2.8883,2.8894,2.886,2.886,2.8837,2.8816,2.8822,2.8802,2.8791,2.8792,2.8771,2.8798,2.8788,2.8764,2.873,2.8778,2.879,2.8796,2.8714,2.8713,2.8712,2.8711,0,0,2.8987,2.8949,2.8954,2.8943,2.8918,2.8919,2.8926,2.8915,2.8913,2.8901,2.8904,2.89,2.8876,2.8868,2.8844,2.8851,2.8889,2.8825,2.8824,2.8834,2.8913,2.8929,2.8936,2.8871,2.8872,2.8873,2.8913,0,2.9041,2.9051,2.9021,2.9038,2.9038,2.8997,2.9002,2.8986,2.8967,2.8963,2.8941,2.8937,2.8908,2.8902,2.8907,2.8884,2.8904,2.8881,2.887,2.887,2.8872,2.8943,2.896,2.9,2.8918,2.8919,2.892,0,2.9105,2.9094,2.9111,2.9081,2.908,2.9086,2.9071,2.9069,2.9049,2.9033,2.9023,2.8995,2.8997,2.8967,2.8967,2.8952,2.8946,2.8933,2.8934,2.8929,2.8896,2.8936,2.9012,2.9017,2.8928,2.8927,2.8927,0,2.917,2.9161,2.9168,2.9161,2.9128,2.9132,2.9118,2.9096,2.909,2.9077,2.9072,2.9059,2.9052,2.9042,2.9009,2.8991,2.9012,2.8981,2.8997,2.8997,2.9001,2.9001,2.9073,2.9003,2.9003,2.9003,2.9003,0,2.9231,2.9242,2.9196,2.9201,2.9211,2.9176,2.9186,2.9168,2.9148,2.9147,2.9111,2.911,2.907,2.9063,2.9039,2.904,2.9038,2.9024,2.9016,2.9025,2.9026,2.9018,2.9013,2.9005,2.9004,2.9004,2.9004,0,2.9304,2.9275,2.928,2.9248,2.9239,2.9248,2.9219,2.922,2.9198,2.9196,2.9194,2.9158,2.9149,2.9116,2.91,2.9082,2.909,2.9079,2.9097,2.9092,2.9108,2.9106,2.9176,2.9181,2.9111,2.9112,2.9113,0,2.9343,2.935,2.9318,2.9314,2.9302,2.9297,2.929,2.9255,2.9249,2.9224,2.9228,2.9216,2.9203,2.919,2.9161,2.9147,2.9132,2.9158,2.913,2.9137,2.9128,2.9127,2.9125,2.9163,2.9164,2.9165,2.9165,0,2.9414,2.9398,2.939,2.9376,2.9368,2.9355,2.934,2.9339,2.9299,2.9294,2.9283,2.9274,2.9255,2.9242,2.9223,2.9206,2.9178,2.9175,2.9177,2.9184,2.9193,2.9184,2.911,2.9173,2.9172,2.9171,2.9171,2.9171,2.9468,2.9471,2.9448,2.9438,2.9423,2.9409,2.9408,2.9385,2.9376,2.9358,2.9338,2.9329,2.9305,2.9276,2.9262,2.9252,2.9238,2.9242,2.9242,2.9243,2.9246,2.9197,2.9249,2.9249,2.9249,2.9249,2.9249,0,2.9533,2.9516,2.9508,2.9487,2.9479,2.9455,2.9436,2.943,2.9423,2.9404,2.9392,2.9378,2.9365,2.9335,2.9318,2.9316,2.9302,2.9312,2.931,2.9306,2.9262,2.926,2.9323,2.9323,2.9323,2.9323,2.9323,2.9323,2.9566,2.9568,2.9549,2.9542,2.9525,2.9516,2.9506,2.9492,2.9476,2.9462,2.9451,2.9432,2.9407,2.9388,2.9373,2.9364,2.9358,2.9372,2.9359,2.9317,2.931,2.9303,2.9301,2.9372,2.9372,2.9403,2.9403,2.9403]}]]